Weather History for St. Petersburg, FL

Change the Weather History Date:

Wednesday, November 3, 2010

  Actual Average Record
Temperature  
Mean Temperature 80 °F -  
Max Temperature 88 °F 79 °F 88 °F (1961)
Min Temperature 72 °F 66 °F 39 °F (1954)
Cooling Degree Days 14    
Growing Degree Days 30 (Base 50)    
Moisture  
Dew Point 68 °F    
Average Humidity 72    
Maximum Humidity 85    
Minimum Humidity 51    
Precipitation  
Precipitation 0.00 in - - ()
Sea Level Pressure  
Sea Level Pressure 29.85 in    
Wind  
Wind Speed 11 mph (SE)    
Max Wind Speed 16 mph    
Max Gust Speed -    
Visibility 10 miles    
Events Rain    
Averages and records for this station are not official NWS values.
T = Trace of Precipitation, MM = Missing Value Source: NWS Daily Summary

Daily Weather History Graph

Daily Weather History Graph

Search for Another Location

Airport:

Trip Planner

Search our weather history database for the weather conditions in past years. The results will help you decide how hot, cold, wet, or windy it might be!

Date:

Astronomy

Nov. 03, 2010 Rise Set
Actual Time 7:42 AM EDT 6:44 PM EDT
Civil Twilight 7:18 AM EDT 7:09 PM EDT
Nautical Twilight 6:50 AM EDT 7:36 PM EDT
Astronomical Twilight 6:23 AM EDT 8:04 PM EDT
Moon 4:52 AM EDT (11/3) 4:46 PM EDT (11/3)
Length of Visible Light 11h 50m
Length of Day
11h 02m
Waning Crescent, 9% of the Moon is Illuminated
Nov 3
Waning Crescent
Nov 6
New
Nov 13
First Quarter
Nov 21
Full
Nov 28
Last Quarter

Hourly Weather History & Observations

Time (EDT) Temp. Heat Index Dew Point Humidity Pressure Visibility Wind Dir Wind Speed Gust Speed Precip Events Conditions
12:53 AM 75.0 °F - 66.0 °F 73% - 10.0 mi East 13.8 mph - N/A   Mostly Cloudy
1:53 AM 75.0 °F - 66.9 °F 76% - 10.0 mi ESE 15.0 mph - N/A   Partly Cloudy
2:53 AM 75.0 °F - 66.9 °F 76% - 10.0 mi ESE 16.1 mph - N/A   Overcast
3:53 AM 73.9 °F - 66.9 °F 79% - 10.0 mi ESE 10.4 mph - N/A   Overcast
4:53 AM 75.0 °F - 66.9 °F 76% - 10.0 mi ESE 10.4 mph - N/A   Mostly Cloudy
5:53 AM 73.9 °F - 68.0 °F 82% - 10.0 mi East 11.5 mph - N/A   Partly Cloudy
6:53 AM 73.0 °F - 68.0 °F 84% - 10.0 mi East 9.2 mph - N/A   Clear
7:53 AM 72.0 °F - 66.9 °F 84% 29.94 in 10.0 mi East 10.4 mph - N/A   Clear
8:53 AM 73.9 °F - 69.1 °F 85% 29.95 in 10.0 mi East 12.7 mph - N/A   Clear
9:53 AM 75.9 °F - 69.1 °F 79% 29.95 in 10.0 mi East 12.7 mph - N/A   Clear
10:53 AM 79.0 °F - 68.0 °F 69% 29.94 in 10.0 mi ESE 11.5 mph - N/A   Clear
11:53 AM 82.0 °F 84.9 °F 68.0 °F 62% 29.91 in 10.0 mi SE 13.8 mph - N/A   Clear
12:53 PM 82.9 °F 85.8 °F 68.0 °F 60% 29.88 in 10.0 mi SE 9.2 mph - N/A   Clear
1:53 PM 84.9 °F 88.8 °F 69.1 °F 59% 29.86 in 10.0 mi ESE 5.8 mph - N/A   Clear
2:53 PM 84.9 °F 89.4 °F 70.0 °F 61% 29.83 in 10.0 mi East 3.5 mph - N/A   Partly Cloudy
3:53 PM 87.1 °F 89.9 °F 66.9 °F 51% 29.81 in 10.0 mi Calm Calm - N/A   Clear
4:53 PM 84.9 °F 89.4 °F 70.0 °F 61% 29.80 in 10.0 mi East 3.5 mph - N/A   Clear
5:53 PM 82.9 °F 85.4 °F 66.9 °F 58% 29.79 in 10.0 mi West 6.9 mph - N/A   Clear
6:53 PM 82.0 °F 84.5 °F 66.9 °F 60% 29.80 in 10.0 mi West 5.8 mph - N/A   Mostly Cloudy
7:53 PM 81.0 °F 84.1 °F 69.1 °F 67% 29.80 in 10.0 mi West 5.8 mph - N/A   Scattered Clouds
8:53 PM 79.0 °F - 70.0 °F 74% 29.81 in 10.0 mi SE 16.1 mph - 0.00 in Rain Light Rain
9:34 PM 77.0 °F - 69.8 °F 78% 29.81 in 10.0 mi SSE 11.5 mph - 0.00 in   Mostly Cloudy
9:43 PM 75.2 °F - 69.8 °F 83% 29.81 in 10.0 mi South 11.5 mph - 0.00 in   Partly Cloudy
9:53 PM 75.9 °F - 69.1 °F 79% 29.81 in 10.0 mi South 10.4 mph - 0.00 in   Partly Cloudy
10:53 PM 75.9 °F - 69.1 °F 79% 29.80 in 10.0 mi SSW 5.8 mph - N/A   Mostly Cloudy
11:53 PM 75.0 °F - 69.1 °F 82% 29.79 in 10.0 mi SSE 9.2 mph - N/A   Partly Cloudy